Regional Weather Roundup
Issued by NWS

Home | Current Version | Previous Version | Graphics & Text | Print | Product List | Glossary On
Versions: 1 2 3 4 5 6 7 8 9 10 11 12 13 14 15 16 17 18 19 20 21 22 23 24 25 26 27 28 29 30 31 32 33 34 35 36 37 38 39 40 41 42 43 44 45 46 47 48 49 50
000
ASUS44 KMEG 242100
RWRTN
TENNESSEE HOURLY STATE WEATHER ROUNDUP
NATIONAL WEATHER SERVICE MEMPHIS TN
400 PM CDT SUN MAY 24 2015

TNZ002-004-019-021-049-052-054-088>092-242200-
WEST TENNESSEE

CITY           SKY/WX    TMP DP  RH WIND       PRES   REMARKS
MEMPHIS INTL   PTSUNNY   86  67  52 SE17      29.99F
NWS MEMPHIS      N/A     84 N/A N/A MISG        N/A
JACKSON        PTSUNNY   84  67  56 S12G21    30.02F
DYERSBURG      PTSUNNY   84  57  39 S10       30.01F
PARIS          MOSUNNY   82  64  54 S14       30.05F
LEXINGTON      PTSUNNY   81  66  61 SE13      30.05F
$$

TNZ008-025-027-028-033-062-065-066-242200-
NORTH MIDDLE TENNESSEE

CITY           SKY/WX    TMP DP  RH WIND       PRES   REMARKS
NASHVILLE      PTSUNNY   85  63  47 SE16G23   30.13F
CLARKSVILLE    PTSUNNY   81  65  58 SE16      30.09F
COOKEVILLE     MOSUNNY   82  63  51 S12       30.18F
CROSSVILLE     SUNNY     77  55  46 SE9       30.25F
$$

TNZ061-075-076-078-094-096-097-242200-
SOUTH MIDDLE TENNESSEE

CITY           SKY/WX    TMP DP  RH WIND       PRES   REMARKS
FAYETTEVILLE   PTSUNNY  N/A N/A N/A MISG      30.16F
TULLAHOMA      PTSUNNY   79  63  57 SE8       30.19F
WINCHESTER     CLOUDY    79  64  61 SE13      30.18F
MCMINNVILLE    MOSUNNY   82  64  54 VRB7      30.18F
COLUMBIA       PTSUNNY   82  66  57 SE10      30.10F
SHELBYVILLE    MOSUNNY   84  68  58 SE12      30.16F
$$

TNZ017-018-042-046-047-242200-
NORTHEAST TENNESSEE

CITY           SKY/WX    TMP DP  RH WIND       PRES   REMARKS
TRI CITIES     MOSUNNY   84  45  25 S6        30.25F
ELIZABETHTON   CLEAR     81  50  34 SW6       30.26F
$$

TNZ012-013-036-069-073-074-242200-
CENTRAL EAST TENNESSEE

CITY           SKY/WX    TMP DP  RH WIND       PRES   REMARKS
KNOXVILLE      MOSUNNY   83  55  38 W12       30.22F
OAK RIDGE      SUNNY     84  55  36 VRB7      30.23F
GATLINBURG       N/A     82  54  36 VRB5      30.22F
$$

TNZ083-085-099-242200-
SOUTHEAST TENNESSEE

CITY           SKY/WX    TMP DP  RH WIND       PRES   REMARKS
CHATTANOOGA    PTSUNNY   82  59  45 SE12      30.20F
$$

SKY/WX REPORTED AS FAIR MEANS FEW OR NO CLOUDS BELOW
12 THOUSAND FEET.



USA.gov is the U.S. government's official web portal to all federal, state and local government web resources and services.